Location: Banios
(43.0451°N, 0.2335°E)
Time: 13:09:26
(UTC+00:00)

A-11 Canister half - Pass Details

Date: 09 May 2021
Orbit: 1513 x 1686 km, 47.2° (Epoch: 14 June)

Event Time Altitude Azimuth Distance (km) Brightness Sun altitude
Rises 16:56:27 0° 253° (WSW) 4,656 12.7 22.5°
Reaches altitude 10° 16:59:29 10° 254° (WSW) 3,670 12.5 22.0°
Maximum altitude 17:08:44 80° 342° (NNW) 1,541 9.5 20.3°
Drops below altitude 10° 17:18:08 10° 71° (ENE) 3,724 10.6 18.6°
Sets 17:21:14 0° 72° (ENE) 4,727 11.0 18.0°
